Airfield :
LOGIN :

Register | Disclaimer

   EN    FR    IT 

 










Legend :    VFR   Marginal VFR   IFR   Intensive IFR   Very Intensive IFR
Visi :
Ceiling :
>= 8 km
>= 3000ft
5 to 8 km
1000 to 3000 ft
1500m to 5 km
500 to 1000 ft
800 to 1500m
200 to 500 ft
< 800m
< 200 ft
Symbols :   Thunderstorms  Fog  Heavy snow  Heavy precipitations  Wind > 20 kt
SIGMETs :     Misc.  Thunderstorms  Icing  Turbulence  Mountain Waves  Volcanic Ashes







- Airport Elevation : 12 ft
- IATA code : NCE
- Download approach charts


LFMN - Nice

CURRENT METAR :
  • 160130Z 35006KT CAVOK 24/15 Q1016 NOSIG

EXPIRED METARs :
  • 160100Z 34008KT CAVOK 24/15 Q1016 NOSIG
  • 160030Z 35007KT 330V040 CAVOK 24/15 Q1016 NOSIG
  • 160000Z 35007KT CAVOK 24/15 Q1016 NOSIG
  • 152330Z 34007KT CAVOK 24/15 Q1016 NOSIG
  • 152300Z 34007KT CAVOK 25/15 Q1016 NOSIG

TAF TAF LFMN
Valid from the 15 at 21:00 until the 17 at 03:00 UTC


152000Z 1521/1703 33010KT CAVOK
BECMG 1609/1611 19008KT FEW040
BECMG 1618/1620 33010KT CAVOK
ATIS : +33 4 93 17 21 16
No reported NOTAMs for that airfield.



MET'MAP, your aeronautical weather chart ! - Copyright ORBIFLY December 2007 - Disclaimer

ORBIFLY MET'MAP TEAM :

Programming & Development : Alexandra Zaïnal
Concept & Development : Baudouin d'Aumeries
Co-Development & Prog : Marc-Olivier Méhu
Technical & hardware support : Manuel Goepfert

Contact : metmap@orbifly.com




SOURCES & CREDITS :

   NOAA